Regional Weather Roundup
Issued by NWS

Home | Current Version | Previous Version | Graphics & Text | Print | Product List | Glossary On
Versions: 1 2 3 4 5 6 7 8 9 10 11 12 13 14 15 16 17 18 19 20 21 22 23 24 25 26 27
254
ASUS45 KBOU 221107
RWRCO

WEATHER ROUNDUP FOR COLORADO
NATIONAL WEATHER SERVICE DENVER/BOULDER CO
500 AM MDT FRI MAY 22 2015

NOTE: "FAIR" INDICATES FEW OR NO CLOUDS BELOW 12000 FEET WITH NO
SIGNIFICANT WEATHER AND/OR OBSTRUCTIONS TO VISIBILITY.

COZ001>005-013-030-031-221200-
...NORTHWEST COLORADO...

CITY           SKY/WX    TMP DP  RH WIND       PRES   REMARKS
CRAIG          CLOUDY    46  40  79 E5        29.99S
HAYDEN         CLOUDY    45  37  76 SE6       29.99S
MEEKER         LGT RAIN  46  41  82 NW5       30.00R
MOUNT WERNER   NOT AVBL
STEAMBOAT SPGS CLOUDY    41  39  91 N3        30.00F
WALDEN         CLOUDY    37  34  87 SW3       29.99F
$$

COZ006>008-011-221200-
...WEST CENTRAL VALLEYS...

CITY           SKY/WX    TMP DP  RH WIND       PRES   REMARKS
GRAND JUNCTION CLOUDY    49  44  83 SE6       29.96F
MONTROSE       CLOUDY    47  43  86 CALM      30.03F
EAGLE          CLOUDY    43  41  93 CALM      30.08R
RIFLE          LGT RAIN  46  41  82 E12       30.01R
DELTA          CLOUDY    50  47  88 NE7       30.00F
NUCLA          CLOUDY    45  41  87 SE6       30.04S
$$

COZ017>023-064>068-221200-
...SOUTHWEST COLORADO...

CITY           SKY/WX    TMP DP  RH WIND       PRES   REMARKS
DURANGO        PTCLDY    41  39  93 E5        30.07F
CORTEZ         CLEAR     48  39  71 SW7       30.01S
PAGOSA SPRINGS CLEAR     36  36  99 NE3       30.13F
TELLURIDE      CLOUDY    38  33  81 E3        30.13F
WOLF CREEK PAS NOT AVBL
$$

COZ009-010-012-014-032>034-037-058>063-221200-
...CENTRAL COLORADO...

CITY           SKY/WX    TMP DP  RH WIND       PRES   REMARKS
ASPEN          LGT RAIN  39  36  89 SW7       30.06S
BUENA VISTA    CLOUDY    38  36  91 SW3       30.08R
COPPER MTN     FOG       34  30  86 S9        30.15F VSB 1/2 WCI  26
BERTHOUD PASS  HAZE      27  19  74 NW7       30.18F VSB 1/4 WCI  19
COTTONWOOD PAS LGT SNOW  36  34  93 CALM      30.11R VSB 3/4
GUNNISON       CLOUDY    41  32  70 S5        30.09S
KREMMLING      DRIZZLE   41  37  87 E3        30.04F
LEADVILLE      FOG       32  32 100 CALM      30.09S VSB 1/4
SALIDA         CLOUDY    41  40  94 E5        30.12F
SUNLIGHT       LGT SNOW  34  32  93 CALM      30.16S VSB 3/4
WILKERSON PASS LGT SNOW  30  30 100 SW8       30.15F VSB 3/4 WCI  23
$$

COZ069>075-221200-
...SAN LUIS VALLEY/SANGRE DE CRISTO MOUNTAINS...

CITY           SKY/WX    TMP DP  RH WIND       PRES   REMARKS
ALAMOSA        CLOUDY    40  36  86 S7        30.08S
LA VETA PASS   CLOUDY   N/A N/A N/A MISG      30.07S
SAGUACHE       CLOUDY    41  36  81 W3        30.08R
$$

COZ035-036-038>040-221200-
...NORTHERN COLORADO FRONT RANGE...

CITY           SKY/WX    TMP DP  RH WIND       PRES   REMARKS
DENVER INTL AP LGT RAIN  46  44  93 E10       30.00F
DMNS CITY PARK   N/A     47  44  90 E3        29.99F
AURORA         LGT RAIN  45  45  99 E7        30.00F
FRONT RANGE AP CLOUDY    46  45  93 SE10      30.01F
ERIE MUNI ARPT DRIZZLE   48  46  93 SE6       30.00S
BOULDER MUN AP RAIN      46  46 100 NE5       29.99F
CENTENNIAL     LGT RAIN  45  43  93 SE7       29.99F
BROOMFIELD     RAIN      46  45  93 CALM      30.01S
FORT COLLINS   CLOUDY    46  45  93 E12       30.02F
LONGMONT       CLOUDY    50  46  86 E7        30.01F
$$

COZ041-046-047-076>085-087-088-221200-
...PIKES PEAK/PALMER DIVIDE AND SOUTHERN FOOTHILLS...

CITY           SKY/WX    TMP DP  RH WIND       PRES   REMARKS
COLO. SPRINGS  LGT RAIN  44  43  96 SE10      30.03S FOG
A. F. ACADEMY  LGT RAIN  42  42 100 S2        30.02F
ELLICOTT       NOT AVBL
FALCON         LGT RAIN  41  41  99 SE12      30.05S
FORT CARSON    RAIN      45 N/A N/A SE6       30.01F
LIMON          LGT RAIN  43  42  97 SE17      30.04F
MONUMENT HILL  NOT AVBL
TRINIDAD       CLOUDY    44  41  89 NW5       30.00S
$$

COZ042>045-048>051-090-091-221200-
...NORTHEAST COLORADO...

CITY           SKY/WX    TMP DP  RH WIND       PRES   REMARKS
GREELEY ARPT   CLOUDY    46  45  93 SE12      30.03S
AKRON          RAIN      45  44  97 SE16      30.05F FOG
BURLINGTON     LGT RAIN  47  45  93 SE18      30.08R
WRAY           DRIZZLE   48  48 100 E9        30.10S
STERLING       CLOUDY    46  45  93 SE7       30.06S
HOLYOKE        NOT AVBL
FORT MORGAN    DRIZZLE   46  44  93 SE9       30.05S
$$

COZ086-089-092>099-221200-
...SOUTHEAST COLORADO...

CITY           SKY/WX    TMP DP  RH WIND       PRES   REMARKS
PUEBLO         LGT RAIN  48  47  96 E7        29.98F
LA JUNTA       LGT RAIN  49  47  93 SE13      29.99F
LAMAR          CLOUDY    50  48  93 SE13      30.02F
SPRINGFIELD      N/A     47  46  97 S21G28    30.06F
$$



USA.gov is the U.S. government's official web portal to all federal, state and local government web resources and services.